Time,TemperatureF,DewpointF,PressureIn,WindDirection,WindDirectionDegrees,WindSpeedMPH,WindSpeedGustMPH,Humidity,HourlyPrecipIn,Conditions,Clouds,dailyrainin,SoftwareType,DateUTC
2013-08-29 00:14:00,76.0,68.0,30.03,WSW,253,0.0,0.0,77,0.00,,,0.00,,2013-08-29 05:14:00,
2013-08-29 00:23:00,75.0,67.0,30.03,WSW,253,0.0,0.0,77,0.00,,,0.00,,2013-08-29 05:23:00,
2013-08-29 00:42:00,75.0,68.0,30.03,WSW,253,0.0,0.0,78,0.00,,,0.00,,2013-08-29 05:42:00,
2013-08-29 00:52:00,75.0,68.0,30.03,WSW,253,0.0,0.0,79,0.00,,,0.00,,2013-08-29 05:52:00,
2013-08-29 01:12:00,75.0,68.0,30.03,WSW,253,0.0,1.0,78,0.00,,,0.00,,2013-08-29 06:12:00,
2013-08-29 01:22:00,75.0,68.0,30.03,WSW,253,0.0,1.0,78,0.00,,,0.00,,2013-08-29 06:22:00,
2013-08-29 01:52:00,75.0,68.0,30.03,WSW,253,0.0,0.0,79,0.00,,,0.00,,2013-08-29 06:52:00,
2013-08-29 02:12:00,74.0,67.0,30.03,WSW,253,0.0,0.0,80,0.00,,,0.00,,2013-08-29 07:12:00,
2013-08-29 02:22:00,74.0,67.0,30.03,WSW,253,0.0,0.0,80,0.00,,,0.00,,2013-08-29 07:22:00,
2013-08-29 02:53:00,74.0,68.0,30.03,WSW,253,0.0,0.0,81,0.00,,,0.00,,2013-08-29 07:53:00,
2013-08-29 03:12:00,74.0,68.0,30.03,WSW,253,0.0,1.0,81,0.00,,,0.00,,2013-08-29 08:12:00,
2013-08-29 03:22:00,74.0,68.0,30.03,SSE,157,0.0,1.0,81,0.00,,,0.00,,2013-08-29 08:22:00,
2013-08-29 03:52:00,75.0,68.0,30.03,SE,134,0.0,3.0,80,0.00,,,0.00,,2013-08-29 08:52:00,
2013-08-29 04:12:00,75.0,68.0,30.03,SSW,193,0.0,1.0,80,0.00,,,0.00,,2013-08-29 09:12:00,
2013-08-29 04:22:00,74.0,68.0,30.02,SSW,209,0.0,1.0,81,0.00,,,0.00,,2013-08-29 09:22:00,
2013-08-29 04:43:00,74.0,68.0,30.03,South,187,0.0,2.0,81,0.00,,,0.00,,2013-08-29 09:43:00,
2013-08-29 04:54:00,75.0,68.0,30.02,SSE,161,0.0,2.0,80,0.00,,,0.00,,2013-08-29 09:54:00,
2013-08-29 05:14:00,75.0,68.0,30.03,SW,222,0.0,5.0,80,0.00,,,0.00,,2013-08-29 10:14:00,
2013-08-29 05:24:00,75.0,68.0,30.03,SW,214,0.0,1.0,80,0.00,,,0.00,,2013-08-29 10:24:00,
2013-08-29 05:53:00,74.0,68.0,30.03,South,177,0.0,1.0,81,0.00,,,0.00,,2013-08-29 10:53:00,
2013-08-29 06:12:00,74.0,68.0,30.03,SE,140,0.0,1.0,81,0.00,,,0.00,,2013-08-29 11:12:00,
2013-08-29 06:22:00,74.0,68.0,30.03,SSE,149,0.0,1.0,81,0.00,,,0.00,,2013-08-29 11:22:00,
2013-08-29 06:42:00,74.0,68.0,30.02,SE,137,0.0,1.0,81,0.00,,,0.00,,2013-08-29 11:42:00,
2013-08-29 06:52:00,74.0,68.0,30.03,SE,145,0.0,0.0,81,0.00,,,0.00,,2013-08-29 11:52:00,
2013-08-29 07:11:00,74.0,68.0,30.03,SSE,156,0.0,1.0,81,0.00,,,0.00,,2013-08-29 12:11:00,
2013-08-29 07:22:00,73.0,67.0,30.04,SSE,165,0.0,0.0,82,0.00,,,0.00,,2013-08-29 12:22:00,
2013-08-29 07:42:00,74.0,68.0,30.04,ESE,117,0.0,1.0,82,0.00,,,0.00,,2013-08-29 12:42:00,
2013-08-29 07:52:00,74.0,68.0,30.04,SSE,167,0.0,1.0,82,0.00,,,0.00,,2013-08-29 12:52:00,
2013-08-29 08:12:00,75.0,69.0,30.03,SSE,147,0.0,1.0,81,0.00,,,0.00,,2013-08-29 13:12:00,
2013-08-29 08:22:00,76.0,69.0,30.03,SW,219,0.0,2.0,80,0.00,,,0.00,,2013-08-29 13:22:00,
2013-08-29 08:42:00,76.0,69.0,30.03,SW,216,0.0,1.0,79,0.00,,,0.00,,2013-08-29 13:42:00,
2013-08-29 08:52:00,77.0,69.0,30.04,WNW,302,0.0,1.0,77,0.00,,,0.00,,2013-08-29 13:52:00,
2013-08-29 09:11:00,78.0,70.0,30.03,ESE,109,0.0,3.0,77,0.00,,,0.00,,2013-08-29 14:11:00,
2013-08-29 09:21:00,80.0,71.0,30.03,SW,231,0.0,2.0,73,0.00,,,0.00,,2013-08-29 14:21:00,
2013-08-29 09:42:00,81.0,70.0,30.04,SW,225,0.0,5.0,70,0.00,,,0.00,,2013-08-29 14:42:00,
2013-08-29 09:52:00,82.0,70.0,30.04,SSW,202,0.0,1.0,68,0.00,,,0.00,,2013-08-29 14:52:00,
2013-08-29 10:12:00,83.0,71.0,30.04,SSE,168,0.0,8.0,68,0.00,,,0.00,,2013-08-29 15:12:00,
2013-08-29 10:21:00,84.0,71.0,30.04,North,355,0.0,5.0,66,0.00,,,0.00,,2013-08-29 15:21:00,
2013-08-29 10:43:00,85.0,71.0,30.04,ESE,108,0.0,6.0,64,0.00,,,0.00,,2013-08-29 15:43:00,
2013-08-29 10:53:00,86.0,72.0,30.04,SE,129,0.0,2.0,63,0.00,,,0.00,,2013-08-29 15:53:00,
2013-08-29 11:24:00,87.0,70.0,30.04,SE,140,1.0,7.0,58,0.00,,,0.00,,2013-08-29 16:24:00,
2013-08-29 11:43:00,89.0,71.0,30.03,South,176,1.0,6.0,56,0.00,,,0.00,,2013-08-29 16:43:00,
2013-08-29 11:53:00,90.0,72.0,30.03,WSW,238,1.0,8.0,55,0.00,,,0.00,,2013-08-29 16:53:00,
2013-08-29 12:13:00,91.0,71.0,30.03,SE,126,0.0,6.0,53,0.00,,,0.00,,2013-08-29 17:13:00,
2013-08-29 12:22:00,92.0,71.0,30.03,SE,132,1.0,7.0,50,0.00,,,0.00,,2013-08-29 17:22:00,
2013-08-29 12:44:00,93.0,72.0,30.02,SSE,152,0.0,5.0,50,0.00,,,0.00,,2013-08-29 17:44:00,
2013-08-29 12:52:00,92.0,71.0,30.02,SSE,157,0.0,7.0,50,0.00,,,0.00,,2013-08-29 17:52:00,
2013-08-29 13:12:00,93.0,71.0,30.02,SSW,201,0.0,7.0,49,0.00,,,0.00,,2013-08-29 18:12:00,
2013-08-29 13:21:00,92.0,70.0,30.01,SSW,206,0.0,3.0,49,0.00,,,0.00,,2013-08-29 18:21:00,
2013-08-29 13:52:00,95.0,71.0,30.00,SW,225,0.0,9.0,46,0.00,,,0.00,,2013-08-29 18:52:00,
2013-08-29 14:11:00,94.0,71.0,30.00,West,273,0.0,4.0,48,0.00,,,0.00,,2013-08-29 19:11:00,
2013-08-29 14:22:00,94.0,71.0,30.00,SE,139,0.0,7.0,47,0.00,,,0.00,,2013-08-29 19:22:00,
2013-08-29 14:52:00,92.0,69.0,30.00,SE,140,2.0,10.0,48,0.00,,,0.00,,2013-08-29 19:52:00,
2013-08-29 15:13:00,93.0,71.0,29.98,East,99,0.0,7.0,49,0.00,,,0.00,,2013-08-29 20:13:00,
2013-08-29 15:22:00,92.0,70.0,29.99,SE,143,0.0,3.0,49,0.00,,,0.00,,2013-08-29 20:22:00,
2013-08-29 15:42:00,93.0,72.0,29.98,SE,146,0.0,5.0,51,0.00,,,0.00,,2013-08-29 20:42:00,
2013-08-29 15:52:00,94.0,71.0,29.98,SE,137,0.0,6.0,47,0.00,,,0.00,,2013-08-29 20:52:00,
2013-08-29 16:12:00,94.0,72.0,29.97,WSW,239,0.0,4.0,50,0.00,,,0.00,,2013-08-29 21:12:00,
2013-08-29 16:22:00,95.0,70.0,29.96,SSE,162,0.0,4.0,44,0.00,,,0.00,,2013-08-29 21:22:00,
2013-08-29 16:44:00,95.0,70.0,29.96,ESE,117,1.0,7.0,44,0.00,,,0.00,,2013-08-29 21:44:00,
2013-08-29 16:54:00,96.0,71.0,29.96,South,184,0.0,4.0,44,0.00,,,0.00,,2013-08-29 21:54:00,
2013-08-29 17:14:00,95.0,70.0,29.96,ESE,112,0.0,7.0,44,0.00,,,0.00,,2013-08-29 22:14:00,
2013-08-29 17:24:00,95.0,69.0,29.96,East,86,0.0,5.0,43,0.00,,,0.00,,2013-08-29 22:24:00,
2013-08-29 17:43:00,95.0,68.0,29.95,SSE,155,0.0,6.0,42,0.00,,,0.00,,2013-08-29 22:43:00,
2013-08-29 17:53:00,95.0,70.0,29.95,ESE,123,0.0,7.0,44,0.00,,,0.00,,2013-08-29 22:53:00,
2013-08-29 18:22:00,94.0,69.0,29.95,West,261,0.0,5.0,44,0.00,,,0.00,,2013-08-29 23:22:00,
2013-08-29 18:53:00,92.0,69.0,29.95,SE,127,0.0,6.0,48,0.00,,,0.00,,2013-08-29 23:53:00,
2013-08-29 19:21:00,90.0,70.0,29.95,South,184,0.0,5.0,52,0.00,,,0.00,,2013-08-30 00:21:00,
2013-08-29 19:52:00,88.0,70.0,29.95,SSE,161,0.0,4.0,55,0.00,,,0.00,,2013-08-30 00:52:00,
2013-08-29 20:12:00,87.0,70.0,29.95,SSE,161,0.0,1.0,58,0.00,,,0.00,,2013-08-30 01:12:00,
2013-08-29 20:22:00,86.0,70.0,29.95,SSE,161,0.0,1.0,60,0.00,,,0.00,,2013-08-30 01:22:00,
2013-08-29 20:42:00,85.0,70.0,29.95,SSE,161,0.0,1.0,62,0.00,,,0.00,,2013-08-30 01:42:00,
2013-08-29 20:52:00,84.0,70.0,29.95,SSE,161,0.0,0.0,63,0.00,,,0.00,,2013-08-30 01:52:00,
2013-08-29 21:11:00,84.0,71.0,29.96,South,176,0.0,1.0,65,0.00,,,0.00,,2013-08-30 02:11:00,
2013-08-29 21:21:00,83.0,71.0,29.96,South,176,0.0,1.0,67,0.00,,,0.00,,2013-08-30 02:21:00,
2013-08-29 21:42:00,83.0,71.0,29.96,South,178,0.0,1.0,68,0.00,,,0.00,,2013-08-30 02:42:00,
2013-08-29 21:52:00,82.0,70.0,29.96,South,175,0.0,1.0,68,0.00,,,0.00,,2013-08-30 02:52:00,
2013-08-29 22:22:00,82.0,70.0,29.95,South,171,0.0,1.0,68,0.00,,,0.00,,2013-08-30 03:22:00,
2013-08-29 22:55:00,81.0,70.0,29.95,South,190,0.0,2.0,69,0.00,,,0.00,,2013-08-30 03:55:00,
2013-08-29 23:14:00,81.0,70.0,29.95,SSW,210,0.0,3.0,70,0.00,,,0.00,,2013-08-30 04:14:00,
2013-08-29 23:24:00,81.0,70.0,29.95,South,173,0.0,1.0,70,0.00,,,0.00,,2013-08-30 04:24:00,
2013-08-29 23:54:00,81.0,71.0,29.95,SSE,161,0.0,1.0,71,0.00,,,0.00,,2013-08-30 04:54:00,